Flag for Sweden Weather past 2 weeks in Norrköping, Sweden

Now
43 °F

Sunny.


Feels Like: 38 °F
Forecast: 31 / 47 °F
Wind: 8 mph from Northwest

Location: Norrkoping Airport

Current Time: Apr 1, 2015 at 12:47:17 PM

Latest Report: Apr 1, 2015 at 11:50 AM


Visibility: 10 mi

Pressure: 29.27 "Hg

Humidity: 71%

Dew point: 34 °F

Location of NorrköpingLocation

Historic Weather in Norrköping — Graph

°F

Norrköping temperature yesterday

Maximum temperature yesterday: 46 °F (at 3:50 PM)
Minimum temperature yesterday: 32 °F (at 5:50 AM)
Average temperature yesterday: 38 °F

Past Weeks' High & Low Weather Summary

 TemperatureHumidityPressure
High55 °F (Mar 18, 1:20 PM)100% (Mar 17, 8:20 PM)30.77 "Hg (Mar 17, 8:20 PM)
Low21 °F (Mar 22, 12:20 AM)26% (Mar 18, 2:50 PM)28.88 "Hg (Mar 30, 10:20 AM)
Average38 °F82%29.84 "Hg
* Reported Mar 17 10:20 AM — Apr 1 11:50 AM, Norrköping, Weather by CustomWeather, © 2015

Note: Actual official high and low records may vary slightly from our data, if they occured in-between our weather recording intervals... More about our weather records

Advertising

Norrköping weather history for previous 24 hours

 ConditionsComfort  
Time TempWeatherWind HumidityBarometerVisibility
11:50 AM
Wed, Apr 1
43 °FSunny.8 mph71%29.27 "Hg10 mi
11:20 AM41 °FSunny.8 mph76%29.24 "Hg10 mi
10:50 AM39 °FSunny.7 mph87%29.24 "Hg10 mi
10:20 AM37 °FPassing clouds.8 mph93%29.24 "HgN/A
9:50 AM37 °FPassing clouds.8 mph93%29.24 "HgN/A
9:20 AM37 °FPassing clouds.8 mph93%29.24 "HgN/A
8:50 AM36 °FSunny.8 mph93%29.21 "Hg10 mi
8:20 AM34 °FSunny.6 mph100%29.21 "Hg10 mi
7:50 AM34 °FSunny.3 mph100%29.21 "Hg10 mi
7:20 AM30 °FClear.5 mph100%29.21 "Hg10 mi
6:50 AM28 °FClear.2 mph100%29.21 "Hg10 mi
6:20 AM28 °FClear.3 mph100%29.18 "Hg10 mi
5:50 AM28 °FClear.5 mph100%29.18 "Hg10 mi
5:20 AM28 °FClear.3 mph100%29.18 "Hg10 mi
4:50 AM30 °FChilly.5 mph100%29.18 "HgN/A
4:20 AM30 °FChilly.2 mph100%29.18 "HgN/A
3:50 AM32 °FChilly.2 mph100%29.18 "HgN/A
3:20 AM30 °FChilly.1 mph100%29.15 "HgN/A
2:50 AM30 °FChilly.3 mph100%29.15 "HgN/A
2:20 AM30 °FChilly.3 mph100%29.15 "HgN/A
1:50 AM30 °FIce fog.2 mph100%29.15 "Hg1 mi
1:20 AM30 °FIce fog.No wind100%29.15 "Hg1 mi
12:50 AM32 °FIce fog.No wind100%29.15 "Hg2 mi
12:20 AM32 °FPartly cloudy.No wind100%29.12 "HgN/A
11:50 PM
Tue, Mar 31
32 °FOvercast.No wind100%29.12 "HgN/A
11:20 PM32 °FPassing clouds.2 mph100%29.12 "HgN/A
10:50 PM32 °FPartly cloudy.1 mph93%29.12 "HgN/A
10:20 PM36 °FChilly.1 mph93%29.12 "HgN/A
9:50 PM36 °FClear.2 mph93%29.12 "Hg10 mi
9:20 PM37 °FClear.2 mph87%29.09 "Hg10 mi
8:50 PM37 °FClear.6 mph81%29.09 "Hg10 mi
8:20 PM39 °FScattered clouds.8 mph81%29.09 "HgN/A
7:50 PM39 °FLight rain. Broken clouds.6 mph81%29.09 "Hg5 mi
7:20 PM41 °FLight rain. Broken clouds.9 mph70%29.06 "HgN/A
6:50 PM39 °FLight rain. Partly sunny.3 mph81%29.06 "HgN/A
6:20 PM41 °FScattered clouds.8 mph81%29.03 "HgN/A
5:50 PM43 °FScattered clouds.9 mph76%29.03 "HgN/A
5:20 PM45 °FScattered clouds.9 mph66%29.03 "HgN/A
4:50 PM45 °FScattered clouds.5 mph57%29.03 "HgN/A
4:20 PM45 °FScattered showers. Scattered clouds.3 mph61%29.03 "HgN/A
3:50 PM46 °FScattered showers. Scattered clouds.5 mph57%29.03 "HgN/A
3:20 PM45 °FScattered showers. Scattered clouds.3 mph61%29.03 "HgN/A
2:50 PM43 °FPartly sunny.3 mph66%29.03 "HgN/A
2:20 PM43 °FBroken clouds.5 mph66%29.03 "HgN/A
1:50 PM43 °FPartly sunny.3 mph66%29.03 "HgN/A
1:20 PM41 °FPartly sunny.6 mph70%29.03 "HgN/A
12:50 PM41 °FPartly sunny.7 mph70%29.03 "HgN/A
12:20 PM41 °FPartly sunny.9 mph76%29.03 "HgN/A
Weather by CustomWeather, © 2015

See weather overviewHow to use our weather pages